Year,Month,Day,Hour,Minute,Value (Times are PST for temperature in C)
2008,11,19,00,00,5.90
2008,11,19,00,01,5.90
2008,11,19,00,02,6.00
2008,11,19,00,03,6.10
2008,11,19,00,04,6.10
2008,11,19,00,05,6.10
2008,11,19,00,06,6.00
2008,11,19,00,07,5.90
2008,11,19,00,08,5.90
2008,11,19,00,09,5.80
2008,11,19,00,10,5.80
2008,11,19,00,11,5.80
2008,11,19,00,12,5.80
2008,11,19,00,13,5.80
2008,11,19,00,14,5.80
2008,11,19,00,15,5.70
2008,11,19,00,16,5.70
2008,11,19,00,17,5.70
2008,11,19,00,18,5.80
2008,11,19,00,19,5.80
2008,11,19,00,20,5.80
2008,11,19,00,21,5.80
2008,11,19,00,22,5.80
2008,11,19,00,23,5.70
2008,11,19,00,24,5.70
2008,11,19,00,25,5.70
2008,11,19,00,26,5.70
2008,11,19,00,27,5.80
2008,11,19,00,28,5.90
2008,11,19,00,29,6.10
2008,11,19,00,30,6.20
2008,11,19,00,31,6.30
2008,11,19,00,32,6.30
2008,11,19,00,33,6.40
2008,11,19,00,34,6.40
2008,11,19,00,35,6.40
2008,11,19,00,36,6.40
2008,11,19,00,37,6.30
2008,11,19,00,38,6.30
2008,11,19,00,39,6.30
2008,11,19,00,40,6.30
2008,11,19,00,41,6.30
2008,11,19,00,42,6.40
2008,11,19,00,43,6.50
2008,11,19,00,44,6.50
2008,11,19,00,45,6.60
2008,11,19,00,46,6.60
2008,11,19,00,47,6.50
2008,11,19,00,48,6.50
2008,11,19,00,49,6.40
2008,11,19,00,50,6.30
2008,11,19,00,51,6.20
2008,11,19,00,52,6.20
2008,11,19,00,53,6.20
2008,11,19,00,54,6.20
2008,11,19,00,55,6.30
2008,11,19,00,56,6.40
2008,11,19,00,57,6.50
2008,11,19,00,58,6.60
2008,11,19,00,59,6.60
2008,11,19,01,00,6.70
2008,11,19,01,01,6.70
2008,11,19,01,02,6.80
2008,11,19,01,03,6.80
2008,11,19,01,04,6.90
2008,11,19,01,05,6.90
2008,11,19,01,06,6.90
2008,11,19,01,07,6.90
2008,11,19,01,08,6.90
2008,11,19,01,09,6.90
2008,11,19,01,10,6.90
2008,11,19,01,11,7.00
2008,11,19,01,12,7.00
2008,11,19,01,13,7.10
2008,11,19,01,14,7.10
2008,11,19,01,15,7.20
2008,11,19,01,16,7.20
2008,11,19,01,17,7.20
2008,11,19,01,18,7.10
2008,11,19,01,19,7.20
2008,11,19,01,20,7.20
2008,11,19,01,21,7.20
2008,11,19,01,22,7.20
2008,11,19,01,23,7.10
2008,11,19,01,24,7.00
2008,11,19,01,25,7.00
2008,11,19,01,26,6.90
2008,11,19,01,27,6.90
2008,11,19,01,28,6.90
2008,11,19,01,29,6.90
2008,11,19,01,30,6.90
2008,11,19,01,31,6.90
2008,11,19,01,32,6.90
2008,11,19,01,33,6.90
2008,11,19,01,34,6.90
2008,11,19,01,35,6.90
2008,11,19,01,36,6.80
2008,11,19,01,37,6.70
2008,11,19,01,38,6.60
2008,11,19,01,39,6.50
2008,11,19,01,40,6.50
2008,11,19,01,41,6.50
2008,11,19,01,42,6.40
2008,11,19,01,43,6.30
2008,11,19,01,44,6.30
2008,11,19,01,45,6.30
2008,11,19,01,46,6.30
2008,11,19,01,47,6.30
2008,11,19,01,48,6.20
2008,11,19,01,49,6.20
2008,11,19,01,50,6.10
2008,11,19,01,51,6.10
2008,11,19,01,52,6.10
2008,11,19,01,53,6.20
2008,11,19,01,54,6.10
2008,11,19,01,55,6.10
2008,11,19,01,56,6.10
2008,11,19,01,57,6.10
2008,11,19,01,58,6.10
2008,11,19,01,59,6.10
2008,11,19,02,00,6.10
2008,11,19,02,01,6.10
2008,11,19,02,02,6.10
2008,11,19,02,03,6.20
2008,11,19,02,04,6.10
2008,11,19,02,05,6.10
2008,11,19,02,06,6.10
2008,11,19,02,07,6.10
2008,11,19,02,08,6.20
2008,11,19,02,09,6.20
2008,11,19,02,10,6.20
2008,11,19,02,11,6.20
2008,11,19,02,12,6.20
2008,11,19,02,13,6.20
2008,11,19,02,14,6.20
2008,11,19,02,15,6.30
2008,11,19,02,16,6.20
2008,11,19,02,17,6.20
2008,11,19,02,18,6.10
2008,11,19,02,19,6.10
2008,11,19,02,20,6.10
2008,11,19,02,21,6.10
2008,11,19,02,22,6.00
2008,11,19,02,23,6.00
2008,11,19,02,24,6.00
2008,11,19,02,25,6.00
2008,11,19,02,26,6.10
2008,11,19,02,27,6.10
2008,11,19,02,28,6.00
2008,11,19,02,29,5.90
2008,11,19,02,30,5.80
2008,11,19,02,31,5.80
2008,11,19,02,32,5.80
2008,11,19,02,33,5.80
2008,11,19,02,34,5.80
2008,11,19,02,35,5.70
2008,11,19,02,36,5.70
2008,11,19,02,37,5.60
2008,11,19,02,38,5.60
2008,11,19,02,39,5.50
2008,11,19,02,40,5.40
2008,11,19,02,41,5.40
2008,11,19,02,42,5.40
2008,11,19,02,43,5.40
2008,11,19,02,44,5.50
2008,11,19,02,45,5.60
2008,11,19,02,46,5.60
2008,11,19,02,47,5.60
2008,11,19,02,48,5.50
2008,11,19,02,49,5.40
2008,11,19,02,50,5.40
2008,11,19,02,51,5.40
2008,11,19,02,52,5.50
2008,11,19,02,53,5.40
2008,11,19,02,54,5.40
2008,11,19,02,55,5.40
2008,11,19,02,56,5.30
2008,11,19,02,57,5.30
2008,11,19,02,58,5.30
2008,11,19,02,59,5.20
2008,11,19,03,00,5.30
2008,11,19,03,01,5.40
2008,11,19,03,02,5.40
2008,11,19,03,03,5.40
2008,11,19,03,04,5.40
2008,11,19,03,05,5.30
2008,11,19,03,06,5.30
2008,11,19,03,07,5.30
2008,11,19,03,08,5.30
2008,11,19,03,09,5.30
2008,11,19,03,10,5.20
2008,11,19,03,11,5.10
2008,11,19,03,12,5.10
2008,11,19,03,13,5.00
2008,11,19,03,14,5.00
2008,11,19,03,15,5.00
2008,11,19,03,16,5.00
2008,11,19,03,17,5.00
2008,11,19,03,18,5.10
2008,11,19,03,19,5.20
2008,11,19,03,20,5.20
2008,11,19,03,21,5.20
2008,11,19,03,22,5.20
2008,11,19,03,23,5.30
2008,11,19,03,24,5.30
2008,11,19,03,25,5.30
2008,11,19,03,26,5.30
2008,11,19,03,27,5.30
2008,11,19,03,28,5.20
2008,11,19,03,29,5.20
2008,11,19,03,30,5.10
2008,11,19,03,31,5.10
2008,11,19,03,32,5.00
2008,11,19,03,33,5.00
2008,11,19,03,34,5.00
2008,11,19,03,35,4.90
2008,11,19,03,36,4.90
2008,11,19,03,37,4.90
2008,11,19,03,38,4.90
2008,11,19,03,39,4.80
2008,11,19,03,40,4.80
2008,11,19,03,41,4.80
2008,11,19,03,42,4.80
2008,11,19,03,43,4.80
2008,11,19,03,44,4.70
2008,11,19,03,45,4.80
2008,11,19,03,46,4.90
2008,11,19,03,47,5.00
2008,11,19,03,48,5.10
2008,11,19,03,49,5.10
2008,11,19,03,50,5.10
2008,11,19,03,51,5.00
2008,11,19,03,52,5.00
2008,11,19,03,53,4.90
2008,11,19,03,54,4.90
2008,11,19,03,55,4.80
2008,11,19,03,56,4.70
2008,11,19,03,57,4.70
2008,11,19,03,58,4.60
2008,11,19,03,59,4.60
2008,11,19,04,00,4.60
2008,11,19,04,01,4.60
2008,11,19,04,02,4.60
2008,11,19,04,03,4.50
2008,11,19,04,04,4.50
2008,11,19,04,05,4.50
2008,11,19,04,06,4.50
2008,11,19,04,07,4.60
2008,11,19,04,08,4.80
2008,11,19,04,09,4.90
2008,11,19,04,10,4.90
2008,11,19,04,11,4.90
2008,11,19,04,12,4.90
2008,11,19,04,13,4.90
2008,11,19,04,14,5.00
2008,11,19,04,15,5.00
2008,11,19,04,16,5.00
2008,11,19,04,17,4.90
2008,11,19,04,18,5.00
2008,11,19,04,19,5.10
2008,11,19,04,20,5.10
2008,11,19,04,21,5.00
2008,11,19,04,22,5.00
2008,11,19,04,23,4.90
2008,11,19,04,24,4.80
2008,11,19,04,25,4.90
2008,11,19,04,26,4.90
2008,11,19,04,27,5.00
2008,11,19,04,28,5.00
2008,11,19,04,29,5.00
2008,11,19,04,30,4.90
2008,11,19,04,31,4.90
2008,11,19,04,32,4.80
2008,11,19,04,33,4.80
2008,11,19,04,34,4.70
2008,11,19,04,35,4.70
2008,11,19,04,36,4.70
2008,11,19,04,37,4.70
2008,11,19,04,38,4.70
2008,11,19,04,39,4.70
2008,11,19,04,40,4.70
2008,11,19,04,41,4.70
2008,11,19,04,42,4.70
2008,11,19,04,43,4.80
2008,11,19,04,44,4.80
2008,11,19,04,45,4.70
2008,11,19,04,46,4.70
2008,11,19,04,47,4.70
2008,11,19,04,48,4.70
2008,11,19,04,49,4.70
2008,11,19,04,50,4.70
2008,11,19,04,51,4.60
2008,11,19,04,52,4.60
2008,11,19,04,53,4.60
2008,11,19,04,54,4.60
2008,11,19,04,55,4.50
2008,11,19,04,56,4.50
2008,11,19,04,57,4.40
2008,11,19,04,58,4.40
2008,11,19,04,59,4.30
2008,11,19,05,00,4.30
2008,11,19,05,01,4.30
2008,11,19,05,02,4.30
2008,11,19,05,03,4.30
2008,11,19,05,04,4.30
2008,11,19,05,05,4.20
2008,11,19,05,06,4.30
2008,11,19,05,07,4.30
2008,11,19,05,08,4.30
2008,11,19,05,09,4.30
2008,11,19,05,10,4.30
2008,11,19,05,11,4.30
2008,11,19,05,12,4.20
2008,11,19,05,13,4.30
2008,11,19,05,14,4.30
2008,11,19,05,15,4.40
2008,11,19,05,16,4.30
2008,11,19,05,17,4.30
2008,11,19,05,18,4.40
2008,11,19,05,19,4.40
2008,11,19,05,20,4.40
2008,11,19,05,21,4.40
2008,11,19,05,22,4.30
2008,11,19,05,23,4.30
2008,11,19,05,24,4.30
2008,11,19,05,25,4.40
2008,11,19,05,26,4.50
2008,11,19,05,27,4.60
2008,11,19,05,28,4.50
2008,11,19,05,29,4.50
2008,11,19,05,30,4.50
2008,11,19,05,31,4.50
2008,11,19,05,32,4.50
2008,11,19,05,33,4.50
2008,11,19,05,34,4.50
2008,11,19,05,35,4.50
2008,11,19,05,36,4.50
2008,11,19,05,37,4.50
2008,11,19,05,38,4.40
2008,11,19,05,39,4.40
2008,11,19,05,40,4.40
2008,11,19,05,41,4.30
2008,11,19,05,42,4.30
2008,11,19,05,43,4.30
2008,11,19,05,44,4.20
2008,11,19,05,45,4.20
2008,11,19,05,46,4.20
2008,11,19,05,47,4.20
2008,11,19,05,48,4.10
2008,11,19,05,49,4.10
2008,11,19,05,50,4.10
2008,11,19,05,51,4.10
2008,11,19,05,52,4.10
2008,11,19,05,53,4.10
2008,11,19,05,54,4.00
2008,11,19,05,55,4.00
2008,11,19,05,56,4.10
2008,11,19,05,57,4.10
2008,11,19,05,58,4.20
2008,11,19,05,59,4.20
2008,11,19,06,00,4.10
2008,11,19,06,01,4.10
2008,11,19,06,02,4.10
2008,11,19,06,03,4.00
2008,11,19,06,04,4.00
2008,11,19,06,05,3.90
2008,11,19,06,06,3.90
2008,11,19,06,07,3.90
2008,11,19,06,08,3.90
2008,11,19,06,09,3.80
2008,11,19,06,10,3.80
2008,11,19,06,11,3.80
2008,11,19,06,12,3.80
2008,11,19,06,13,3.80
2008,11,19,06,14,3.90
2008,11,19,06,15,3.90
2008,11,19,06,16,3.90
2008,11,19,06,17,3.90
2008,11,19,06,18,3.80
2008,11,19,06,19,3.80
2008,11,19,06,20,3.80
2008,11,19,06,21,3.80
2008,11,19,06,22,3.80
2008,11,19,06,23,3.80
2008,11,19,06,24,3.80
2008,11,19,06,25,3.80
2008,11,19,06,26,3.80
2008,11,19,06,27,3.80
2008,11,19,06,28,3.80
2008,11,19,06,29,4.00
2008,11,19,06,30,4.00
2008,11,19,06,31,4.00
2008,11,19,06,32,4.00
2008,11,19,06,33,4.10
2008,11,19,06,34,4.10
2008,11,19,06,35,4.00
2008,11,19,06,36,4.00
2008,11,19,06,37,4.00
2008,11,19,06,38,4.00
2008,11,19,06,39,4.00
2008,11,19,06,40,3.90
2008,11,19,06,41,3.90
2008,11,19,06,42,3.90
2008,11,19,06,43,3.90
2008,11,19,06,44,3.80
2008,11,19,06,45,3.80
2008,11,19,06,46,3.80
2008,11,19,06,47,3.80
2008,11,19,06,48,3.80
2008,11,19,06,49,3.80
2008,11,19,06,50,3.80
2008,11,19,06,51,3.80
2008,11,19,06,52,3.80
2008,11,19,06,53,3.80
2008,11,19,06,54,3.80
2008,11,19,06,55,3.80
2008,11,19,06,56,3.80
2008,11,19,06,57,3.70
2008,11,19,06,58,3.70
2008,11,19,06,59,3.70
2008,11,19,07,00,3.70
2008,11,19,07,01,3.70
2008,11,19,07,02,3.70
2008,11,19,07,03,3.60
2008,11,19,07,04,3.70
2008,11,19,07,05,3.70
2008,11,19,07,06,3.60
2008,11,19,07,07,3.60
2008,11,19,07,08,3.60
2008,11,19,07,09,3.60
2008,11,19,07,10,3.60
2008,11,19,07,11,3.50
2008,11,19,07,12,3.50
2008,11,19,07,13,3.50
2008,11,19,07,14,3.40
2008,11,19,07,15,3.40
2008,11,19,07,16,3.40
2008,11,19,07,17,3.40
2008,11,19,07,18,3.40
2008,11,19,07,19,3.40
2008,11,19,07,20,3.40
2008,11,19,07,21,3.40
2008,11,19,07,22,3.40
2008,11,19,07,23,3.40
2008,11,19,07,24,3.40
2008,11,19,07,25,3.40
2008,11,19,07,26,3.30
2008,11,19,07,27,3.30
2008,11,19,07,28,3.30
2008,11,19,07,29,3.30
2008,11,19,07,30,3.30
2008,11,19,07,31,3.30
2008,11,19,07,32,3.30
2008,11,19,07,33,3.30
2008,11,19,07,34,3.30
2008,11,19,07,35,3.30
2008,11,19,07,36,3.30
2008,11,19,07,37,3.30
2008,11,19,07,38,3.30
2008,11,19,07,39,3.30
2008,11,19,07,40,3.20
2008,11,19,07,41,3.20
2008,11,19,07,42,3.20
2008,11,19,07,43,3.20
2008,11,19,07,44,3.20
2008,11,19,07,45,3.20
2008,11,19,07,46,3.20
2008,11,19,07,47,3.20
2008,11,19,07,48,3.20
2008,11,19,07,49,3.20
2008,11,19,07,50,3.20
2008,11,19,07,51,3.20
2008,11,19,07,52,3.20
2008,11,19,07,53,3.20
2008,11,19,07,54,3.20
2008,11,19,07,55,3.20
2008,11,19,07,56,3.20
2008,11,19,07,57,3.20
2008,11,19,07,58,3.20
2008,11,19,07,59,3.30
2008,11,19,08,00,3.30
2008,11,19,08,01,3.30
2008,11,19,08,02,3.30
2008,11,19,08,03,3.30
2008,11,19,08,04,3.30
2008,11,19,08,05,3.20
2008,11,19,08,06,3.20
2008,11,19,08,07,3.20
2008,11,19,08,08,3.20
2008,11,19,08,09,3.20
2008,11,19,08,10,3.20
2008,11,19,08,11,3.20
2008,11,19,08,12,3.20
2008,11,19,08,13,3.20
2008,11,19,08,14,3.20
2008,11,19,08,15,3.20
2008,11,19,08,16,3.20
2008,11,19,08,17,3.20
2008,11,19,08,18,3.20
2008,11,19,08,19,3.20
2008,11,19,08,20,3.20
2008,11,19,08,21,3.20
2008,11,19,08,22,3.20
2008,11,19,08,23,3.30
2008,11,19,08,24,3.30
2008,11,19,08,25,3.30
2008,11,19,08,26,3.30
2008,11,19,08,27,3.40
2008,11,19,08,28,3.50
2008,11,19,08,29,3.50
2008,11,19,08,30,3.50
2008,11,19,08,31,3.60
2008,11,19,08,32,3.60
2008,11,19,08,33,3.70
2008,11,19,08,34,3.70
2008,11,19,08,35,3.80
2008,11,19,08,36,3.80
2008,11,19,08,37,3.90
2008,11,19,08,38,3.90
2008,11,19,08,39,4.00
2008,11,19,08,40,4.10
2008,11,19,08,41,4.10
2008,11,19,08,42,4.20
2008,11,19,08,43,4.20
2008,11,19,08,44,4.30
2008,11,19,08,45,4.30
2008,11,19,08,46,4.30
2008,11,19,08,47,4.40
2008,11,19,08,48,4.40
2008,11,19,08,49,4.40
2008,11,19,08,50,4.50
2008,11,19,08,51,4.50
2008,11,19,08,52,4.60
2008,11,19,08,53,4.60
2008,11,19,08,54,4.70
2008,11,19,08,55,4.80
2008,11,19,08,56,4.80
2008,11,19,08,57,4.90
2008,11,19,08,58,4.90
2008,11,19,08,59,4.90
2008,11,19,09,00,4.90
2008,11,19,09,01,5.00
2008,11,19,09,02,5.00
2008,11,19,09,03,5.10
2008,11,19,09,04,5.10
2008,11,19,09,05,5.20
2008,11,19,09,06,5.20
2008,11,19,09,07,5.30
2008,11,19,09,08,5.40
2008,11,19,09,09,5.50
2008,11,19,09,10,5.60
2008,11,19,09,11,5.80
2008,11,19,09,12,5.90
2008,11,19,09,13,6.00
2008,11,19,09,14,6.10
2008,11,19,09,15,6.10
2008,11,19,09,16,6.20
2008,11,19,09,17,6.30
2008,11,19,09,18,6.30
2008,11,19,09,19,6.30
2008,11,19,09,20,6.40
2008,11,19,09,21,6.50
2008,11,19,09,22,6.60
2008,11,19,09,23,6.70
2008,11,19,09,24,6.80
2008,11,19,09,25,6.90
2008,11,19,09,26,7.00
2008,11,19,09,27,7.10
2008,11,19,09,28,7.20
2008,11,19,09,29,7.20
2008,11,19,09,30,7.30
2008,11,19,09,31,7.40
2008,11,19,09,32,7.50
2008,11,19,09,33,7.50
2008,11,19,09,34,7.60
2008,11,19,09,35,7.70
2008,11,19,09,36,7.80
2008,11,19,09,37,7.90
2008,11,19,09,38,8.10
2008,11,19,09,39,8.20
2008,11,19,09,40,8.30
2008,11,19,09,41,8.50
2008,11,19,09,42,8.60
2008,11,19,09,43,8.70
2008,11,19,09,44,8.80
2008,11,19,09,45,9.00
2008,11,19,09,46,9.10
2008,11,19,09,47,9.20
2008,11,19,09,48,9.20
2008,11,19,09,49,9.20
2008,11,19,09,50,9.20
2008,11,19,09,51,9.20
2008,11,19,09,52,9.30
2008,11,19,09,53,9.30
2008,11,19,09,54,9.30
2008,11,19,09,55,9.30
2008,11,19,09,56,9.30
2008,11,19,09,57,9.30
2008,11,19,09,58,9.30
2008,11,19,09,59,9.30
2008,11,19,10,00,9.30
2008,11,19,10,01,9.30
2008,11,19,10,02,9.40
2008,11,19,10,03,9.40
2008,11,19,10,04,9.40
2008,11,19,10,05,9.40
2008,11,19,10,06,9.50
2008,11,19,10,07,9.50
2008,11,19,10,08,9.40
2008,11,19,10,09,9.40
2008,11,19,10,10,9.50
2008,11,19,10,11,9.50
2008,11,19,10,12,9.60
2008,11,19,10,13,9.60
2008,11,19,10,14,9.60
2008,11,19,10,15,9.60
2008,11,19,10,16,9.60
2008,11,19,10,17,9.60
2008,11,19,10,18,9.60
2008,11,19,10,19,9.60
2008,11,19,10,20,9.70
2008,11,19,10,21,9.70
2008,11,19,10,22,9.90
2008,11,19,10,23,10.00
2008,11,19,10,24,10.10
2008,11,19,10,25,10.20
2008,11,19,10,26,10.20
2008,11,19,10,27,10.20
2008,11,19,10,28,10.10
2008,11,19,10,29,10.20
2008,11,19,10,30,10.20
2008,11,19,10,31,10.20
2008,11,19,10,32,10.20
2008,11,19,10,33,10.20
2008,11,19,10,34,10.20
2008,11,19,10,35,10.20
2008,11,19,10,36,10.20
2008,11,19,10,37,10.10
2008,11,19,10,38,10.10
2008,11,19,10,39,10.10
2008,11,19,10,40,10.20
2008,11,19,10,41,10.20
2008,11,19,10,42,10.20
2008,11,19,10,43,10.20
2008,11,19,10,44,10.20
2008,11,19,10,45,10.20
2008,11,19,10,46,10.30
2008,11,19,10,47,10.30
2008,11,19,10,48,10.30
2008,11,19,10,49,10.30
2008,11,19,10,50,10.30
2008,11,19,10,51,10.40
2008,11,19,10,52,10.50
2008,11,19,10,53,10.50
2008,11,19,10,54,10.50
2008,11,19,10,55,10.50
2008,11,19,10,56,10.40
2008,11,19,10,57,10.40
2008,11,19,10,58,10.40
2008,11,19,10,59,10.50
2008,11,19,11,00,10.50
2008,11,19,11,01,10.60
2008,11,19,11,02,10.60
2008,11,19,11,03,10.60
2008,11,19,11,04,10.60
2008,11,19,11,05,10.60
2008,11,19,11,06,10.60
2008,11,19,11,07,10.60
2008,11,19,11,08,10.60
2008,11,19,11,09,10.60
2008,11,19,11,10,10.70
2008,11,19,11,11,10.70
2008,11,19,11,12,10.80
2008,11,19,11,13,10.80
2008,11,19,11,14,10.70
2008,11,19,11,15,10.70
2008,11,19,11,16,10.70
2008,11,19,11,17,10.70
2008,11,19,11,18,10.70
2008,11,19,11,19,10.70
2008,11,19,11,20,10.80
2008,11,19,11,21,10.80
2008,11,19,11,22,10.80
2008,11,19,11,23,10.80
2008,11,19,11,24,10.80
2008,11,19,11,25,10.90
2008,11,19,11,26,10.90
2008,11,19,11,27,10.90
2008,11,19,11,28,10.90
2008,11,19,11,29,10.90
2008,11,19,11,30,10.90
2008,11,19,11,31,10.90
2008,11,19,11,32,10.80
2008,11,19,11,33,10.80
2008,11,19,11,34,10.80
2008,11,19,11,35,10.80
2008,11,19,11,36,10.80
2008,11,19,11,37,10.80
2008,11,19,11,38,10.80
2008,11,19,11,39,10.90
2008,11,19,11,40,10.90
2008,11,19,11,41,10.90
2008,11,19,11,42,10.90
2008,11,19,11,43,10.90
2008,11,19,11,44,11.00
2008,11,19,11,45,11.10
2008,11,19,11,46,11.10
2008,11,19,11,47,11.20
2008,11,19,11,48,11.20
2008,11,19,11,49,11.10
2008,11,19,11,50,11.10
2008,11,19,11,51,11.10
2008,11,19,11,52,11.10
2008,11,19,11,53,11.10
2008,11,19,11,54,11.00
2008,11,19,11,55,11.00
2008,11,19,11,56,11.00
2008,11,19,11,57,10.90
2008,11,19,11,58,10.90
2008,11,19,11,59,10.90
2008,11,19,12,00,10.90
2008,11,19,12,01,11.00
2008,11,19,12,02,11.00
2008,11,19,12,03,11.10
2008,11,19,12,04,11.10
2008,11,19,12,05,11.10
2008,11,19,12,06,11.20
2008,11,19,12,07,11.20
2008,11,19,12,08,11.30
2008,11,19,12,09,11.30
2008,11,19,12,10,11.30
2008,11,19,12,11,11.30
2008,11,19,12,12,11.40
2008,11,19,12,13,11.40
2008,11,19,12,14,11.40
2008,11,19,12,15,11.50
2008,11,19,12,16,11.60
2008,11,19,12,17,11.60
2008,11,19,12,18,11.60
2008,11,19,12,19,11.70
2008,11,19,12,20,11.70
2008,11,19,12,21,11.80
2008,11,19,12,22,11.80
2008,11,19,12,23,11.80
2008,11,19,12,24,11.90
2008,11,19,12,25,11.90
2008,11,19,12,26,11.80
2008,11,19,12,27,11.80
2008,11,19,12,28,11.80
2008,11,19,12,29,11.80
2008,11,19,12,30,11.80
2008,11,19,12,31,11.80
2008,11,19,12,32,11.80
2008,11,19,12,33,11.80
2008,11,19,12,34,11.80
2008,11,19,12,35,11.80
2008,11,19,12,36,11.90
2008,11,19,12,37,11.90
2008,11,19,12,38,11.90
2008,11,19,12,39,11.90
2008,11,19,12,40,12.00
2008,11,19,12,41,12.00
2008,11,19,12,42,12.00
2008,11,19,12,43,11.90
2008,11,19,12,44,11.90
2008,11,19,12,45,11.90
2008,11,19,12,46,11.80
2008,11,19,12,47,11.80
2008,11,19,12,48,11.80
2008,11,19,12,49,11.80
2008,11,19,12,50,11.80
2008,11,19,12,51,11.80
2008,11,19,12,52,11.80
2008,11,19,12,53,11.80
2008,11,19,12,54,11.80
2008,11,19,12,55,11.80
2008,11,19,12,56,11.80
2008,11,19,12,57,11.80
2008,11,19,12,58,11.80
2008,11,19,12,59,11.80
2008,11,19,13,00,11.80
2008,11,19,13,01,11.90
2008,11,19,13,02,11.90
2008,11,19,13,03,11.90
2008,11,19,13,04,11.90
2008,11,19,13,05,11.90
2008,11,19,13,06,11.90
2008,11,19,13,07,12.00
2008,11,19,13,08,12.00
2008,11,19,13,09,12.10
2008,11,19,13,10,12.10
2008,11,19,13,11,12.20
2008,11,19,13,12,12.20
2008,11,19,13,13,12.20
2008,11,19,13,14,12.20
2008,11,19,13,15,12.10
2008,11,19,13,16,12.10
2008,11,19,13,17,12.10
2008,11,19,13,18,12.10
2008,11,19,13,19,12.10
2008,11,19,13,20,12.10
2008,11,19,13,21,12.10
2008,11,19,13,22,12.10
2008,11,19,13,23,12.10
2008,11,19,13,24,12.10
2008,11,19,13,25,12.10
2008,11,19,13,26,12.20
2008,11,19,13,27,12.30
2008,11,19,13,28,12.40
2008,11,19,13,29,12.50
2008,11,19,13,30,12.60
2008,11,19,13,31,12.70
2008,11,19,13,32,12.70
2008,11,19,13,33,12.70
2008,11,19,13,34,12.70
2008,11,19,13,35,12.60
2008,11,19,13,36,12.50
2008,11,19,13,37,12.40
2008,11,19,13,38,12.40
2008,11,19,13,39,12.30
2008,11,19,13,40,12.20
2008,11,19,13,41,12.10
2008,11,19,13,42,12.10
2008,11,19,13,43,12.00
2008,11,19,13,44,12.00
2008,11,19,13,45,12.00
2008,11,19,13,46,12.00
2008,11,19,13,47,12.00
2008,11,19,13,48,12.00
2008,11,19,13,49,12.10
2008,11,19,13,50,12.10
2008,11,19,13,51,12.20
2008,11,19,13,52,12.20
2008,11,19,13,53,12.20
2008,11,19,13,54,12.20
2008,11,19,13,55,12.20
2008,11,19,13,56,12.20
2008,11,19,13,57,12.20
2008,11,19,13,58,12.20
2008,11,19,13,59,12.30
2008,11,19,14,00,12.30
2008,11,19,14,01,12.30
2008,11,19,14,02,12.20
2008,11,19,14,03,12.20
2008,11,19,14,04,12.20
2008,11,19,14,05,12.20
2008,11,19,14,06,12.20
2008,11,19,14,07,12.20
2008,11,19,14,08,12.20
2008,11,19,14,09,12.20
2008,11,19,14,10,12.20
2008,11,19,14,11,12.20
2008,11,19,14,12,12.10
2008,11,19,14,13,12.10
2008,11,19,14,14,12.00
2008,11,19,14,15,12.00
2008,11,19,14,16,12.00
2008,11,19,14,17,11.90
2008,11,19,14,18,12.00
2008,11,19,14,19,12.00
2008,11,19,14,20,12.00
2008,11,19,14,21,12.10
2008,11,19,14,22,12.20
2008,11,19,14,23,12.20
2008,11,19,14,24,12.30
2008,11,19,14,25,12.30
2008,11,19,14,26,12.30
2008,11,19,14,27,12.30
2008,11,19,14,28,12.30
2008,11,19,14,29,12.30
2008,11,19,14,30,12.30
2008,11,19,14,31,12.30
2008,11,19,14,32,12.30
2008,11,19,14,33,12.30
2008,11,19,14,34,12.30
2008,11,19,14,35,12.30
2008,11,19,14,36,12.30
2008,11,19,14,37,12.30
2008,11,19,14,38,12.30
2008,11,19,14,39,12.20
2008,11,19,14,40,12.10
2008,11,19,14,41,12.10
2008,11,19,14,42,12.10
2008,11,19,14,43,12.00
2008,11,19,14,44,12.00
2008,11,19,14,45,11.90
2008,11,19,14,46,11.90
2008,11,19,14,47,11.90
2008,11,19,14,48,11.90
2008,11,19,14,49,11.80
2008,11,19,14,50,11.80
2008,11,19,14,51,11.80
2008,11,19,14,52,11.80
2008,11,19,14,53,11.80
2008,11,19,14,54,11.80
2008,11,19,14,55,11.70
2008,11,19,14,56,11.70
2008,11,19,14,57,11.70
2008,11,19,14,58,11.60
2008,11,19,14,59,11.60
2008,11,19,15,00,11.50
2008,11,19,15,01,11.50
2008,11,19,15,02,11.50
2008,11,19,15,03,11.40
2008,11,19,15,04,11.40
2008,11,19,15,05,11.40
2008,11,19,15,06,11.30
2008,11,19,15,07,11.30
2008,11,19,15,08,11.30
2008,11,19,15,09,11.30
2008,11,19,15,10,11.20
2008,11,19,15,11,11.20
2008,11,19,15,12,11.20
2008,11,19,15,13,11.20
2008,11,19,15,14,11.20
2008,11,19,15,15,11.20
2008,11,19,15,16,11.10
2008,11,19,15,17,11.00
2008,11,19,15,18,11.00
2008,11,19,15,19,10.90
2008,11,19,15,20,10.80
2008,11,19,15,21,10.70
2008,11,19,15,22,10.70
2008,11,19,15,23,10.60
2008,11,19,15,24,10.50
2008,11,19,15,25,10.40
2008,11,19,15,26,10.30
2008,11,19,15,27,10.30
2008,11,19,15,28,10.20
2008,11,19,15,29,10.20
2008,11,19,15,30,10.10
2008,11,19,15,31,10.10
2008,11,19,15,32,10.00
2008,11,19,15,33,10.00
2008,11,19,15,34,9.90
2008,11,19,15,35,9.80
2008,11,19,15,36,9.70
2008,11,19,15,37,9.70
2008,11,19,15,38,9.60
2008,11,19,15,39,9.50
2008,11,19,15,40,9.50
2008,11,19,15,41,9.40
2008,11,19,15,42,9.30
2008,11,19,15,43,9.20
2008,11,19,15,44,9.20
2008,11,19,15,45,9.10
2008,11,19,15,46,9.10
2008,11,19,15,47,9.00
2008,11,19,15,48,9.00
2008,11,19,15,49,8.90
2008,11,19,15,50,8.90
2008,11,19,15,51,8.80
2008,11,19,15,52,8.70
2008,11,19,15,53,8.70
2008,11,19,15,54,8.60
2008,11,19,15,55,8.60
2008,11,19,15,56,8.50
2008,11,19,15,57,8.50
2008,11,19,15,58,8.40
2008,11,19,15,59,8.40
2008,11,19,16,00,8.30
2008,11,19,16,01,8.30
2008,11,19,16,02,8.20
2008,11,19,16,03,8.20
2008,11,19,16,04,8.10
2008,11,19,16,05,8.10
2008,11,19,16,06,8.10
2008,11,19,16,07,8.10
2008,11,19,16,08,8.10
2008,11,19,16,09,8.10
2008,11,19,16,10,8.00
2008,11,19,16,11,8.00
2008,11,19,16,12,8.00
2008,11,19,16,13,7.90
2008,11,19,16,14,7.90
2008,11,19,16,15,7.90
2008,11,19,16,16,7.80
2008,11,19,16,17,7.80
2008,11,19,16,18,7.80
2008,11,19,16,19,7.70
2008,11,19,16,20,7.70
2008,11,19,16,21,7.70
2008,11,19,16,22,7.70
2008,11,19,16,23,7.60
2008,11,19,16,24,7.60
2008,11,19,16,25,7.60
2008,11,19,16,26,7.50
2008,11,19,16,27,7.50
2008,11,19,16,28,7.50
2008,11,19,16,29,7.40
2008,11,19,16,30,7.40
2008,11,19,16,31,7.40
2008,11,19,16,32,7.40
2008,11,19,16,33,7.30
2008,11,19,16,34,7.30
2008,11,19,16,35,7.30
2008,11,19,16,36,7.30
2008,11,19,16,37,7.20
2008,11,19,16,38,7.20
2008,11,19,16,39,7.20
2008,11,19,16,40,7.20
2008,11,19,16,41,7.20
2008,11,19,16,42,7.20
2008,11,19,16,43,7.10
2008,11,19,16,44,7.10
2008,11,19,16,45,7.10
2008,11,19,16,46,7.10
2008,11,19,16,47,7.10
2008,11,19,16,48,7.10
2008,11,19,16,49,7.10
2008,11,19,16,50,7.00
2008,11,19,16,51,7.00
2008,11,19,16,52,6.90
2008,11,19,16,53,6.90
2008,11,19,16,54,6.80
2008,11,19,16,55,6.80
2008,11,19,16,56,6.70
2008,11,19,16,57,6.70
2008,11,19,16,58,6.60
2008,11,19,16,59,6.60
2008,11,19,17,00,6.50
2008,11,19,17,01,6.50
2008,11,19,17,02,6.40
2008,11,19,17,03,6.40
2008,11,19,17,04,6.30
2008,11,19,17,05,6.30
2008,11,19,17,06,6.30
2008,11,19,17,07,6.30
2008,11,19,17,08,6.20
2008,11,19,17,09,6.20
2008,11,19,17,10,6.10
2008,11,19,17,11,6.10
2008,11,19,17,12,6.10
2008,11,19,17,13,6.00
2008,11,19,17,14,6.00
2008,11,19,17,15,6.00
2008,11,19,17,16,5.90
2008,11,19,17,17,6.00
2008,11,19,17,18,6.00
2008,11,19,17,19,5.90
2008,11,19,17,20,5.90
2008,11,19,17,21,5.90
2008,11,19,17,22,5.90
2008,11,19,17,23,5.90
2008,11,19,17,24,5.90
2008,11,19,17,25,5.80
2008,11,19,17,26,5.80
2008,11,19,17,27,5.80
2008,11,19,17,28,5.70
2008,11,19,17,29,5.70
2008,11,19,17,30,5.70
2008,11,19,17,31,5.70
2008,11,19,17,32,5.70
2008,11,19,17,33,5.70
2008,11,19,17,34,5.60
2008,11,19,17,35,5.60
2008,11,19,17,36,5.60
2008,11,19,17,37,5.60
2008,11,19,17,38,5.60
2008,11,19,17,39,5.60
2008,11,19,17,40,5.60
2008,11,19,17,41,5.60
2008,11,19,17,42,5.60
2008,11,19,17,43,5.50
2008,11,19,17,44,5.50
2008,11,19,17,45,5.40
2008,11,19,17,46,5.40
2008,11,19,17,47,5.40
2008,11,19,17,48,5.40
2008,11,19,17,49,5.40
2008,11,19,17,50,5.40
2008,11,19,17,51,5.40
2008,11,19,17,52,5.40